Regional Weather Roundup
Issued by NWS

Home | Current Version | Previous Version | Graphics & Text | Print | Product List | Glossary On
Versions: 1 2 3 4 5 6 7 8 9 10 11 12 13 14 15 16 17 18 19 20 21 22 23 24 25 26 27 28 29 30 31 32 33 34 35 36 37 38 39 40 41 42 43 44 45 46 47 48 49 50
000
ASUS43 KTOP 210308
RWRKS

WEATHER ROUNDUP FOR KANSAS
NATIONAL WEATHER SERVICE GOODLAND KS
1000 PM CDT THU JUL 20 2017

NOTE:  "FAIR" INDICATES FEW OR NO CLOUDS BELOW 12,000 FEET WITH NO
SIGNIFICANT WEATHER AND/OR OBSTRUCTIONS TO VISIBILITY.

KSZ001>006-013>018-027>032-041>047-210400-
NORTHWEST KANSAS

CITY           SKY/WX    TMP DP  RH WIND       PRES   REMARKS
GOODLAND       CLEAR     80  66  62 S8        29.95S
HAYS           CLEAR     86  61  42 S10       29.90R
HILL CITY      CLEAR     89  59  36 S8        29.89R
RUSSELL        CLEAR     89  60  37 S12       29.89R
$$

KSZ061>065-074>080-084>089-210400-
SOUTHWEST KANSAS

CITY           SKY/WX    TMP DP  RH WIND       PRES   REMARKS
DODGE CITY     CLEAR     86  56  35 S12       29.95R
ELKHART          N/A     78  48  34 S8          N/A
GARDEN CITY    CLEAR     81  60  48 S8        29.95R
LIBERAL        CLEAR     82  58  43 S12       29.98R
PRATT          CLEAR     87  56  34 SE9       29.95R
$$

KSZ066>073-081>083-090>101-210400-
SOUTHEAST KANSAS

CITY           SKY/WX    TMP DP  RH WIND       PRES   REMARKS
CHANUTE        CLEAR     86  74  67 S9        29.99R
COFFEYVILLE    CLEAR     85  74  69 S9        29.98R
HUTCHINSON     CLEAR     88  64  44 SE13      29.93R
MEDICINE LODGE   N/A     90  58  33 S8        29.93R
NEWTON         CLEAR     88  66  48 S14       29.96R
PARSONS        CLEAR     85  73  67 S6        29.99S
WICHITA INTL   CLEAR     89  67  47 SE15      29.94R
WICHITA JABRA  CLEAR     88  67  49 SE14G23   29.95R
WICHITA MCCONL CLEAR     89  66  47 S15       29.95R
WINFIELD       CLEAR     88  68  51 S12       29.97R
$$

KSZ007>012-019>026-033>040-048>060-102>105-210400-
NORTHEAST KANSAS

CITY           SKY/WX    TMP DP  RH WIND       PRES   REMARKS
CONCORDIA      CLEAR     89  66  46 S17       29.89R
EMPORIA        CLEAR     85  71  63 S12       29.96R
LAWRENCE       CLEAR     88  75  65 S9        29.93S HX  97
MANHATTAN      CLEAR     89  68  49 S9        29.90R
MARYSVILLE     CLEAR     88  68  51 S8        29.90R
OLATHE IND     CLEAR     85  74  69 S10       29.96F
OLATHE EXE     CLEAR     83  75  77 S8        29.96F
SALINA         CLEAR     92  65  40 S15       29.90R
TOPEKA BILLARD CLEAR     88  75  65 S13       29.93R HX  97
TOPEKA FORBES  CLEAR     87  75  67 S12       29.94S HX  96
$$



USA.gov is the U.S. government's official web portal to all federal, state and local government web resources and services.